Date,TemperatureHighF,TemperatureAvgF,TemperatureLowF,DewpointHighF,DewpointAvgF,DewpointLowF,HumidityHigh,HumidityAvg,HumidityLow,PressureMaxIn,PressureMinIn,WindSpeedMaxMPH,WindSpeedAvgMPH,GustSpeedMaxMPH,PrecipitationSumIn
2014-1-1,36.7,26.7,18.1,29.0,23.5,16.0,94,88,66,28.20,28.00,6,0,6,0.00
2014-1-2,28.7,21.8,10.8,28.0,20.2,8.0,94,93,92,28.00,27.59,11,0,11,0.00
2014-1-3,10.9,4.1,-5.1,8.0,3.1,0.0,92,86,69,28.30,27.73,9,1,9,0.00
2014-1-4,35.2,11.9,-5.5,21.0,8.5,0.0,93,79,43,28.25,28.05,2,0,2,0.00
2014-1-5,44.7,28.0,4.8,42.0,26.0,8.0,96,88,56,28.09,27.50,6,0,8,0.00
2014-1-6,40.5,17.5,-9.4,39.0,17.2,-6.0,96,93,88,27.96,27.40,14,0,14,0.00
2014-1-7,-0.7,-6.9,-13.9,0.0,-4.9,-13.0,93,91,85,28.26,27.94,8,0,8,0.00
2014-1-8,19.7,9.1,-6.2,18.0,7.9,-6.0,93,86,67,28.38,28.25,4,0,4,0.00
2014-1-9,32.5,27.6,22.5,28.0,24.8,21.0,94,88,76,28.49,28.35,2,0,2,0.00
2014-1-10,35.9,30.4,25.8,35.0,29.1,24.0,95,95,94,28.36,27.99,2,0,2,0.00
2014-1-11,45.9,38.8,33.2,45.0,37.9,32.0,97,96,95,27.99,27.41,8,0,8,0.00
2014-1-12,36.1,31.4,23.9,35.0,30.2,23.0,95,95,93,28.02,27.60,8,1,8,0.00
2014-1-13,51.4,34.9,20.5,43.0,32.1,18.0,96,90,61,28.00,27.76,1,0,1,0.00
2014-1-14,44.1,37.9,24.1,43.0,36.9,23.0,96,95,93,27.82,27.71,4,0,4,0.00
2014-1-15,34.7,29.0,23.2,33.0,26.8,21.0,95,90,77,27.94,27.79,5,1,5,0.00
2014-1-16,29.6,22.1,14.9,23.0,19.3,14.0,93,87,72,27.93,27.79,5,0,6,0.00
2014-1-20,36.4,30.2,23.2,33.0,28.3,21.0,95,92,84,27.85,27.63,6,2,7,0.00
2014-1-21,22.5,18.2,13.7,21.0,16.5,11.0,93,93,90,28.78,27.78,7,1,7,0.00
2014-1-22,4.6,3.6,1.1,4.0,0.1,0.0,88,79,75,30.17,27.89,6,2,7,0.00
2014-1-24,12.9,9.9,3.8,8.0,5.2,0.0,92,75,56,29.85,28.06,6,1,6,0.00
2014-1-27,12.3,6.8,2.6,8.0,3.4,0.0,91,78,68,28.89,27.90,8,1,8,0.00
2014-1-28,5.3,3.3,-2.6,0.0,-2.9,-6.0,91,67,58,28.69,28.18,5,1,5,0.00
2014-1-29,10.7,8.4,1.7,4.0,1.0,0.0,80,66,61,28.69,28.07,12,1,12,0.00
2014-1-30,27.9,22.2,3.1,14.0,6.7,4.0,92,49,38,28.24,28.04,4,1,4,0.00
2014-2-4,31.5,25.1,6.8,28.0,22.9,8.0,94,90,77,28.31,27.98,7,1,7,0.00
2014-2-5,33.7,27.0,18.1,33.0,25.7,16.0,95,94,93,28.11,27.61,9,1,12,0.00
2014-2-6,24.9,18.1,14.6,18.0,15.8,14.0,93,89,71,28.25,28.11,9,0,9,0.00
2014-2-7,21.6,14.3,0.1,16.0,12.2,0.0,93,88,71,28.23,28.15,9,1,9,0.00
2014-2-8,22.7,8.2,-5.7,16.0,6.4,-6.0,93,83,53,28.23,28.07,4,0,4,0.00
2014-2-9,28.0,19.0,10.9,26.0,17.5,8.0,94,93,92,28.07,27.83,12,0,12,0.00
2014-2-10,23.2,14.0,6.2,18.0,12.4,8.0,93,91,75,28.20,28.02,4,0,5,0.00
2014-2-11,21.1,7.6,-9.7,16.0,6.6,-6.0,93,87,67,28.35,28.19,5,0,5,0.00
2014-2-12,21.0,3.3,-20.5,14.0,2.0,-13.0,93,82,62,28.35,28.06,7,0,7,0.00
2014-2-13,29.9,22.6,15.6,29.0,21.1,14.0,94,93,93,28.06,27.45,9,0,9,0.00
2014-2-14,35.1,26.4,19.4,32.0,24.5,18.0,95,91,78,27.66,27.43,14,0,14,0.00
2014-2-15,27.4,23.7,8.6,26.0,22.0,8.0,94,91,77,27.93,27.58,7,1,7,0.00
2014-2-16,24.9,15.6,5.4,24.0,14.8,8.0,93,92,86,28.16,27.87,4,0,4,0.00
2014-2-17,28.2,17.2,-4.9,18.0,9.7,0.0,93,71,40,28.31,27.90,9,1,9,0.00
2014-2-18,37.0,28.0,20.0,36.0,26.6,18.0,95,93,89,27.99,27.80,11,0,11,0.00
2014-2-19,44.9,31.9,14.6,44.0,30.2,14.0,96,93,78,28.07,27.68,11,0,12,0.00
2014-2-20,50.6,32.0,16.6,43.0,29.3,14.0,96,90,50,28.10,27.78,9,0,11,0.00
2014-2-21,42.7,37.0,32.5,41.0,32.7,21.0,96,84,57,27.91,27.62,14,1,14,0.00
2014-2-22,50.8,37.1,25.7,31.0,25.4,21.0,94,64,38,27.99,27.89,12,1,13,0.00
2014-2-23,51.3,32.3,21.5,36.0,28.6,21.0,95,86,50,27.99,27.89,5,0,5,0.00
2014-2-24,30.6,22.9,17.1,28.0,15.9,11.0,94,71,53,28.03,27.89,11,1,11,0.00
2014-2-25,26.5,19.8,16.6,21.0,16.3,11.0,93,83,67,27.99,27.87,9,1,9,0.00
2014-2-26,20.1,12.6,-3.2,18.0,9.1,0.0,93,81,61,27.92,27.69,9,1,9,0.00
2014-2-27,20.8,7.2,-6.2,18.0,6.1,-6.0,93,87,61,28.03,27.54,15,1,15,0.00
2014-2-28,21.3,4.5,-16.5,8.0,-1.3,-13.0,93,71,36,28.25,28.03,6,0,6,0.00
2014-3-1,44.9,24.1,0.8,35.0,18.0,4.0,95,76,38,28.15,28.03,6,0,6,0.00
2014-3-2,37.2,28.4,15.4,36.0,26.9,14.0,95,92,83,28.04,27.97,6,1,6,0.00
2014-3-3,15.5,8.3,-4.7,14.0,2.0,-6.0,92,69,53,28.24,28.01,10,2,10,0.00
2014-3-4,34.7,15.1,-5.8,16.0,7.1,-6.0,92,67,29,28.26,28.05,5,0,6,0.00
2014-3-5,36.5,21.0,5.8,21.0,12.6,8.0,93,69,36,28.32,28.07,7,1,11,0.00
2014-3-6,29.3,20.3,8.6,18.0,13.2,8.0,89,72,55,28.39,28.19,11,2,12,0.00
2014-3-7,46.8,30.3,18.5,33.0,24.6,16.0,94,79,52,28.20,27.89,6,0,6,0.00
2014-3-8,47.9,33.1,18.2,40.0,29.4,16.0,96,87,66,27.95,27.87,7,0,7,0.00
2014-3-9,35.6,27.4,19.7,29.0,22.9,18.0,94,82,58,28.10,27.89,7,1,7,0.00
2014-3-10,53.5,41.5,28.4,40.0,33.8,24.0,88,74,52,27.89,27.63,9,1,9,0.00
2014-3-11,62.7,48.5,34.7,45.0,40.3,33.0,96,76,49,27.74,27.63,11,0,11,0.00
2014-3-12,46.8,33.8,16.1,46.0,32.6,14.0,97,95,93,27.63,27.07,8,1,14,0.00
2014-3-13,20.7,14.1,3.7,14.0,9.8,4.0,93,78,60,28.04,27.59,11,2,11,0.01
2014-3-14,55.6,39.1,14.9,36.0,27.6,14.0,93,65,43,28.03,27.75,11,1,12,0.00
2014-3-15,49.2,41.0,29.7,43.0,34.5,29.0,96,78,55,28.03,27.72,12,2,13,0.00
2014-3-16,32.3,26.3,19.7,29.0,17.0,8.0,94,68,41,28.14,27.98,10,1,10,0.00
2014-3-17,30.0,24.7,18.7,26.0,19.9,11.0,93,80,63,27.96,27.87,9,2,9,0.00
2014-3-18,41.7,32.7,25.6,31.0,26.3,23.0,94,77,59,28.07,27.93,11,1,11,0.00
2014-3-19,42.7,37.4,32.8,41.0,33.4,24.0,96,85,67,28.06,27.75,10,1,10,0.00
2014-3-20,41.4,35.5,31.6,40.0,33.1,29.0,96,91,75,27.94,27.76,10,1,10,0.00
2014-3-21,41.8,32.5,23.5,37.0,29.6,23.0,95,88,60,28.04,27.89,4,0,7,0.00
2014-3-22,53.9,40.4,26.6,42.0,33.1,26.0,96,76,51,28.03,27.70,12,2,14,0.00
2014-3-23,34.4,28.8,15.9,31.0,21.8,11.0,95,75,44,28.17,28.00,6,2,8,0.00
2014-3-24,30.4,20.3,9.8,16.0,11.0,4.0,93,65,42,28.19,28.01,8,1,8,0.00
2014-3-25,36.6,24.3,12.7,24.0,17.0,11.0,94,75,45,28.02,27.79,10,1,10,0.00
2014-3-26,25.3,19.7,11.4,21.0,13.2,4.0,93,75,46,28.19,27.86,11,2,11,0.00
2014-3-27,51.6,29.3,7.2,28.0,16.6,8.0,93,64,22,28.23,27.97,10,1,10,0.00
2014-3-28,62.1,46.2,35.6,55.0,42.7,26.0,97,88,55,28.11,27.87,13,0,13,0.00
2014-3-29,50.5,38.8,28.9,48.0,37.8,28.0,97,95,89,28.11,27.66,10,1,10,0.01
2014-3-30,40.1,33.8,30.1,39.0,32.3,29.0,96,94,83,27.97,27.66,12,2,13,0.00
2014-3-31,58.2,39.9,23.9,38.0,31.0,23.0,95,74,41,28.15,27.97,8,1,8,0.00
2014-4-1,71.6,46.8,25.3,43.0,32.6,24.0,96,64,29,28.09,27.90,12,0,14,0.00
2014-4-2,57.2,49.9,42.6,52.0,43.1,29.0,97,80,35,28.12,27.99,7,1,7,0.01
2014-4-3,60.9,47.5,35.9,50.0,42.2,35.0,97,84,49,28.10,27.88,9,1,9,0.00
2014-4-4,49.7,46.2,44.8,48.0,45.3,44.0,97,97,96,27.86,27.63,11,0,11,0.00
2014-4-5,45.5,36.2,24.3,44.0,32.2,23.0,97,85,66,28.12,27.76,12,1,16,0.00
2014-4-6,56.3,37.9,17.7,33.0,24.1,16.0,95,63,24,28.19,28.06,9,1,9,0.00
2014-4-7,42.9,37.2,29.5,42.0,35.8,26.0,96,94,70,28.07,27.51,10,1,10,0.00
2014-4-8,57.2,44.6,30.8,47.0,40.3,29.0,97,86,52,27.71,27.42,12,1,14,0.00
2014-4-9,59.9,42.0,26.1,39.0,29.6,23.0,96,66,33,28.01,27.69,9,1,12,0.00
2014-4-10,69.3,47.7,22.6,40.0,30.6,21.0,95,59,25,28.11,27.91,12,1,14,0.77
2014-4-11,63.7,53.2,48.9,57.0,48.8,36.0,97,88,39,28.08,27.92,12,0,12,0.00
2014-4-12,72.5,53.3,34.2,52.0,38.8,31.0,97,67,24,28.25,28.03,9,0,9,0.00
2014-4-13,81.9,60.8,42.4,55.0,47.1,41.0,97,67,27,28.07,27.91,12,1,12,0.01
2014-4-14,76.9,59.9,48.6,61.0,53.1,48.0,98,82,41,27.91,27.73,10,0,11,0.00
2014-4-15,56.7,39.6,24.1,56.0,38.4,23.0,97,95,88,28.04,27.55,11,1,11,0.00
2014-4-16,44.8,30.2,17.6,26.0,19.5,14.0,93,66,34,28.38,28.03,10,1,11,0.00
2014-4-17,54.9,40.0,23.1,33.0,27.2,21.0,94,62,39,28.49,28.37,12,1,12,0.01
2014-4-18,68.4,45.5,25.7,40.0,34.1,24.0,95,70,30,28.42,28.19,6,0,6,0.00
2014-4-19,64.6,48.1,30.7,44.0,30.6,21.0,96,59,20,28.33,28.19,9,1,9,0.00
2014-4-20,68.2,50.7,32.5,36.0,32.0,28.0,95,55,24,28.36,28.20,9,1,9,0.00
2014-4-21,81.0,55.2,29.2,42.0,35.1,28.0,96,57,17,28.20,27.85,6,0,6,0.00
2014-4-22,67.6,51.9,40.0,61.0,48.9,39.0,98,90,63,27.85,27.64,15,1,15,0.00
2014-4-23,44.2,39.3,35.6,41.0,35.9,24.0,96,87,63,28.00,27.74,8,2,12,0.00
2014-4-24,62.9,42.4,22.3,31.0,25.2,21.0,94,56,22,28.13,27.95,8,1,8,0.01
2014-4-25,67.2,49.7,33.2,55.0,41.8,29.0,97,79,30,27.95,27.69,12,1,12,0.00
2014-4-26,69.7,52.8,39.9,49.0,41.3,35.0,97,69,35,27.97,27.80,11,2,11,0.00
2014-4-27,64.9,45.4,27.9,38.0,33.7,26.0,95,68,31,28.10,27.96,8,1,8,0.01
2014-4-28,57.6,47.6,39.2,49.0,40.5,35.0,97,78,50,28.07,27.93,6,1,11,0.00
2014-4-29,47.8,45.4,43.8,47.0,44.6,43.0,97,97,96,28.10,27.93,15,1,15,0.00
2014-4-30,53.4,47.9,44.5,52.0,47.0,44.0,97,97,96,28.09,27.84,9,1,9,0.00
2014-5-1,62.7,52.5,38.5,56.0,48.9,38.0,97,88,59,27.87,27.81,9,1,9,0.00
2014-5-2,55.3,48.3,38.8,44.0,41.4,38.0,96,79,58,27.89,27.78,9,0,9,0.00
2014-5-3,63.9,48.4,35.9,52.0,43.3,35.0,97,85,45,27.86,27.77,8,1,8,0.00
2014-5-4,60.6,49.3,41.6,50.0,42.9,35.0,97,80,60,27.99,27.83,11,1,11,0.00
2014-5-5,64.1,47.5,28.7,44.0,36.0,28.0,96,69,31,28.06,27.91,7,1,7,0.00
2014-5-6,73.2,53.7,34.8,45.0,39.0,33.0,97,65,28,28.05,27.89,5,1,8,0.01
2014-5-7,64.1,48.8,34.3,54.0,45.6,33.0,97,89,69,28.19,28.04,7,1,7,0.00
2014-5-8,85.9,63.5,41.8,60.0,52.1,41.0,97,72,38,28.14,28.06,10,0,10,0.00
2014-5-9,84.3,66.4,48.9,67.0,56.2,48.0,98,75,35,28.13,27.95,8,0,11,0.00
2014-5-10,68.6,61.6,54.1,63.0,59.6,53.0,98,94,78,28.03,27.94,9,0,9,0.00
2014-5-11,76.8,60.5,44.7,59.0,50.7,44.0,98,75,33,28.20,28.01,7,0,7,0.00
2014-5-12,82.9,63.0,46.4,67.0,57.3,45.0,99,84,51,28.18,28.11,8,0,9,0.00
2014-5-13,90.2,71.4,59.1,70.0,62.7,58.0,99,79,36,28.20,28.12,9,0,9,0.00
2014-5-14,77.8,65.7,56.3,67.0,62.1,55.0,99,90,64,28.21,28.10,8,1,9,0.00
2014-5-15,71.9,63.3,52.1,64.0,60.8,51.0,98,93,71,28.12,27.92,11,1,11,0.00
2014-5-16,56.7,48.7,37.5,51.0,46.2,37.0,97,92,68,27.97,27.89,4,0,4,0.00
2014-5-17,58.2,46.2,37.9,50.0,42.6,37.0,97,88,54,28.16,27.95,6,0,6,0.00
2014-5-18,63.9,47.2,33.7,46.0,38.1,33.0,97,75,35,28.27,28.16,6,0,6,0.00
2014-5-19,73.4,50.9,29.1,46.0,37.2,28.0,97,67,27,28.32,28.19,6,0,6,0.01
2014-5-20,72.6,55.1,37.8,53.0,44.1,37.0,97,72,31,28.21,28.01,6,0,7,0.00
2014-5-21,73.4,61.3,51.5,69.0,59.0,50.0,99,93,69,28.04,27.91,2,0,4,0.00
2014-5-22,80.5,66.2,49.5,66.0,58.5,48.0,99,79,46,28.02,27.87,10,1,10,0.00
2014-5-23,68.1,53.6,39.8,58.0,47.1,39.0,98,81,50,28.13,27.95,9,1,9,0.00
2014-5-24,75.3,57.5,48.0,56.0,51.5,47.0,97,84,43,28.19,28.09,6,0,6,0.01
2014-5-25,81.0,59.4,40.8,62.0,48.5,40.0,98,73,32,28.24,28.14,6,0,6,0.01
2014-5-26,83.1,62.7,42.4,61.0,51.6,41.0,97,73,35,28.19,28.05,6,0,6,0.00
2014-5-27,83.8,64.5,53.0,72.0,61.7,52.0,99,92,56,28.05,27.96,6,0,6,0.01
2014-5-28,80.6,66.9,59.3,74.0,65.2,58.0,99,96,69,28.07,27.95,4,0,4,0.00
2014-5-29,62.9,59.9,55.7,62.0,59.0,55.0,98,98,95,28.14,28.07,2,0,3,0.00
2014-5-30,78.4,61.9,52.5,61.0,55.5,52.0,98,83,42,28.21,28.11,6,0,6,0.00
2014-5-31,79.6,61.2,44.4,61.0,49.0,42.0,98,71,28,28.28,28.18,8,0,8,0.01
2014-6-1,81.6,61.4,40.7,60.0,51.0,39.0,97,74,39,28.33,28.21,6,0,6,0.00
2014-6-2,78.9,63.3,48.7,70.0,60.1,48.0,99,91,71,28.23,28.08,4,0,4,0.00
2014-6-3,82.9,66.5,55.7,71.0,63.4,55.0,99,92,58,28.08,27.93,7,0,7,0.00
2014-6-4,77.7,63.2,52.9,72.0,59.1,52.0,99,88,55,27.98,27.75,6,0,6,0.00
2014-6-5,73.5,61.1,48.7,60.0,55.1,48.0,98,83,51,27.95,27.74,4,0,6,0.00
2014-6-6,78.9,58.9,41.2,61.0,50.2,40.0,97,77,42,28.06,27.91,5,0,5,0.01
2014-6-7,85.3,63.3,43.9,63.0,53.3,43.0,98,76,33,28.14,28.01,4,0,4,0.00
2014-6-8,79.9,62.4,49.2,69.0,60.1,48.0,99,94,60,28.01,27.86,5,0,6,0.00
2014-6-9,69.7,62.8,57.9,69.0,61.9,57.0,99,98,89,28.00,27.91,2,0,2,0.00
2014-6-10,82.4,66.8,55.1,71.0,63.1,54.0,99,90,55,28.02,27.95,4,0,4,0.00
2014-6-11,80.7,68.5,61.7,74.0,65.9,61.0,99,93,71,28.04,27.93,6,0,6,0.00
2014-6-12,77.6,67.0,62.9,77.0,66.2,62.0,99,98,79,27.98,27.88,4,0,4,0.00
2014-6-13,81.4,66.1,55.1,72.0,63.6,54.0,99,93,63,27.97,27.86,6,0,6,0.00
2014-6-14,71.8,57.3,48.6,59.0,53.0,48.0,97,88,54,28.14,27.97,5,0,5,0.00
2014-6-15,85.1,61.9,42.9,63.0,52.3,42.0,98,77,33,28.23,28.13,5,0,5,0.00
2014-6-16,86.0,66.9,47.9,73.0,61.7,47.0,99,86,55,28.23,28.14,5,0,5,0.00
2014-6-17,86.8,72.8,59.4,80.0,68.4,59.0,100,88,61,28.20,28.05,6,0,6,0.00
2014-6-18,85.7,72.8,63.9,73.0,68.7,62.0,99,89,57,28.18,28.05,10,0,10,0.01
2014-6-19,70.4,65.7,60.9,70.0,64.9,60.0,99,99,98,28.14,28.05,4,0,5,0.00
2014-6-20,84.4,68.2,58.5,73.0,62.2,58.0,99,85,45,28.14,27.99,3,0,3,0.00
2014-6-21,67.5,61.1,56.5,66.0,60.2,56.0,99,98,95,28.00,27.95,2,0,2,0.00
2014-6-22,82.5,65.1,54.8,70.0,61.1,54.0,99,89,55,28.05,27.96,3,0,3,0.00
2014-6-23,83.8,67.1,51.6,71.0,62.6,51.0,99,88,59,28.14,28.03,7,0,7,0.00
2014-6-24,86.8,71.3,58.9,75.0,66.7,58.0,99,88,59,28.13,28.03,5,0,5,0.00
2014-6-25,82.8,71.4,65.6,78.0,69.1,65.0,100,94,72,28.03,27.94,5,0,5,0.00
2014-6-26,83.8,70.3,63.1,71.0,66.3,62.0,99,89,61,28.10,27.99,2,0,2,0.00
2014-6-27,86.5,70.1,58.6,72.0,65.3,58.0,99,87,54,28.22,28.10,4,0,4,0.00
2014-6-28,83.2,71.2,61.0,72.0,66.5,60.0,99,87,62,28.32,28.22,2,0,6,0.00
2014-6-29,83.9,70.4,64.2,76.0,68.4,63.0,99,95,65,28.27,28.14,5,0,5,0.00
2014-6-30,88.4,72.7,62.7,81.0,69.3,62.0,100,92,63,28.15,28.00,5,0,5,0.00
2014-7-1,89.8,75.1,62.7,78.0,70.1,62.0,99,87,58,28.02,27.91,5,0,6,0.00
2014-7-2,88.5,74.7,64.9,75.0,69.3,64.0,99,86,53,28.03,27.91,4,0,4,0.00
2014-7-3,85.4,69.1,59.9,76.0,66.4,59.0,99,93,60,28.10,27.99,6,0,8,0.00
2014-7-4,76.5,63.5,51.8,61.0,55.9,49.0,98,79,47,28.27,28.10,9,1,9,0.00
2014-7-5,82.4,62.8,45.9,59.0,52.2,45.0,97,74,33,28.33,28.19,4,0,4,0.00
2014-7-6,83.9,63.2,45.5,64.0,55.4,45.0,98,80,38,28.19,27.99,7,0,7,0.01
2014-7-7,87.6,73.0,58.7,72.0,64.4,58.0,99,77,48,27.99,27.88,7,0,9,0.00
2014-7-8,85.9,71.7,65.9,76.0,68.1,65.0,99,91,59,27.92,27.79,8,0,8,0.03
2014-7-9,84.5,69.6,59.5,73.0,64.1,59.0,99,86,50,28.05,27.88,7,0,7,0.00
2014-7-10,84.8,67.9,54.5,72.0,61.9,54.0,99,84,51,28.19,28.05,4,0,4,0.00
2014-7-11,87.3,68.2,53.3,72.0,61.4,52.0,99,82,39,28.29,28.19,4,0,4,0.00
2014-7-12,87.9,70.6,57.2,72.0,63.1,56.0,99,81,40,28.27,28.13,5,0,5,0.01
2014-7-13,84.9,69.6,59.1,79.0,66.9,58.0,99,93,60,28.13,27.97,9,0,11,0.01
2014-7-14,74.8,68.7,65.6,74.0,67.9,65.0,99,99,98,28.01,27.89,2,0,2,0.00
2014-7-15,79.5,67.6,56.1,76.0,66.0,55.0,99,96,63,27.90,27.83,6,0,6,0.00
2014-7-16,76.8,61.8,49.4,61.0,55.5,48.0,98,83,48,28.03,27.88,4,0,4,0.00
2014-7-17,79.3,60.8,46.9,61.0,54.5,46.0,98,83,43,28.19,28.01,4,0,5,0.00
2014-7-18,77.9,62.2,47.9,66.0,57.1,47.0,99,86,50,28.29,28.18,4,0,5,0.00
2014-7-19,69.5,64.0,60.4,68.0,63.0,60.0,99,98,91,28.25,28.17,5,0,5,0.00
2014-7-20,78.5,67.9,61.0,70.0,64.0,60.0,99,89,64,28.18,28.13,4,0,4,0.00
2014-7-21,85.4,70.2,60.2,74.0,67.1,59.0,99,92,62,28.23,28.13,3,0,3,0.00
2014-7-22,89.6,72.6,60.1,76.0,68.0,59.0,99,88,56,28.23,28.11,6,0,6,0.00
2014-7-23,86.8,72.6,63.1,77.0,69.2,62.0,100,91,61,28.11,27.97,5,0,5,0.00
2014-7-24,79.1,66.4,54.8,64.0,59.7,54.0,98,82,48,28.05,27.98,5,0,5,0.00
2014-7-25,83.6,62.7,45.7,64.0,54.2,45.0,98,78,38,28.15,28.05,4,0,4,0.00
2014-7-26,85.8,67.5,53.8,68.0,61.2,53.0,99,83,46,28.07,27.94,4,0,4,0.01
2014-7-27,86.6,70.0,62.9,74.0,67.4,62.0,99,93,63,27.96,27.69,9,0,9,0.00
2014-7-28,68.3,62.5,54.7,67.0,61.7,54.0,99,98,92,27.93,27.64,5,1,6,0.00
2014-7-29,71.2,57.3,48.7,60.0,54.0,48.0,98,90,60,28.05,27.91,4,0,4,0.00
2014-7-30,75.2,59.8,46.7,65.0,56.1,45.0,98,89,61,28.11,28.03,6,0,6,0.00
2014-7-31,79.8,63.8,53.4,69.0,59.9,53.0,99,89,56,28.17,28.07,2,0,5,0.00
2014-8-1,82.4,65.6,52.4,72.0,60.5,51.0,99,86,55,28.23,28.15,4,0,4,0.00
2014-8-2,80.9,67.2,56.7,71.0,63.5,56.0,99,90,63,28.21,28.10,4,0,4,0.01
2014-8-3,79.3,65.0,56.3,74.0,63.4,55.0,99,96,73,28.16,28.10,3,0,3,0.00
2014-8-4,84.4,65.1,52.3,71.0,59.7,51.0,99,85,45,28.21,28.11,4,0,4,0.00
2014-8-5,85.8,65.7,51.5,71.0,60.4,51.0,99,86,48,28.16,28.05,5,0,5,0.00
2014-8-6,80.6,65.0,55.9,72.0,61.5,55.0,99,90,60,28.06,28.01,3,0,4,0.00
2014-8-7,80.2,63.2,49.5,67.0,57.4,49.0,99,84,48,28.14,28.03,4,0,4,0.01
2014-8-8,80.9,62.4,47.5,68.0,56.5,47.0,99,84,46,28.21,28.13,4,0,4,0.00
2014-8-9,81.6,65.6,51.5,72.0,60.6,51.0,99,86,59,28.19,28.13,6,0,6,0.00
2014-8-10,82.3,67.3,53.0,76.0,61.1,52.0,99,83,55,28.21,28.11,6,0,6,0.00
2014-8-11,74.2,66.0,57.4,67.0,62.4,56.0,98,90,69,28.13,27.99,8,0,12,0.00
2014-8-12,72.8,65.8,62.4,72.0,65.0,62.0,99,98,98,27.99,27.82,2,0,3,0.00
2014-8-13,68.4,61.8,52.1,67.0,61.0,51.0,99,98,90,27.99,27.85,4,0,4,0.00
2014-8-14,73.9,57.4,44.3,68.0,53.3,43.0,99,88,48,27.99,27.93,5,0,5,0.00
2014-8-15,72.5,54.6,40.5,62.0,49.7,40.0,97,86,50,28.06,27.98,4,0,4,0.00
2014-8-16,78.7,57.0,40.0,63.0,50.9,39.0,98,83,42,28.07,27.97,5,0,5,0.00
2014-8-17,81.2,65.4,52.0,76.0,62.8,51.0,99,93,68,28.04,27.96,4,0,4,0.00
2014-8-18,85.4,67.4,53.3,74.0,63.8,52.0,99,90,56,28.01,27.89,4,0,4,0.00
2014-8-19,80.4,68.5,60.6,76.0,67.0,60.0,99,96,81,27.97,27.88,7,0,7,0.00
2014-8-20,79.9,67.6,59.9,76.0,66.0,59.0,99,96,75,28.05,27.94,3,0,4,0.00
2014-8-21,84.3,69.9,59.7,77.0,67.1,59.0,99,93,64,28.13,28.03,4,0,4,0.00
2014-8-22,75.7,69.2,65.3,74.0,68.5,64.0,99,99,95,28.09,28.01,4,0,4,0.00
2014-8-23,78.6,67.7,64.0,78.0,66.8,63.0,100,98,86,28.13,28.01,5,0,5,0.00
2014-8-24,78.9,67.2,56.5,66.0,62.0,55.0,98,86,58,28.21,28.12,5,0,6,0.00
2014-8-25,80.5,63.6,51.6,72.0,58.2,51.0,99,85,53,28.27,28.16,4,0,4,0.00
2014-8-26,85.6,63.9,46.6,69.0,58.3,46.0,99,85,51,28.26,28.13,4,0,4,0.00
2014-8-27,88.6,68.3,53.8,76.0,64.7,53.0,99,90,62,28.16,28.04,3,0,3,0.01
2014-8-28,76.8,63.2,49.7,65.0,57.4,49.0,98,84,49,28.16,28.05,4,0,4,0.00
2014-8-29,78.0,59.4,43.2,65.0,52.8,42.0,98,82,48,28.24,28.13,6,0,6,0.00
2014-8-30,87.2,67.6,51.3,75.0,63.8,50.0,99,89,61,28.22,28.12,2,0,4,0.00
2014-8-31,74.8,68.1,63.5,74.0,67.3,62.0,99,99,98,28.14,28.09,4,0,4,0.00
2014-9-1,80.2,71.0,67.1,78.0,69.7,66.0,100,97,84,28.09,28.02,6,0,6,0.00
2014-9-2,81.4,72.6,64.9,77.0,70.2,64.0,100,94,76,28.06,27.92,5,0,6,0.00
2014-9-3,83.8,68.9,58.9,78.0,64.5,58.0,100,88,55,28.17,28.01,1,0,2,0.00
2014-9-4,87.8,69.2,54.9,76.0,64.9,54.0,99,88,59,28.22,28.15,0,0,0,0.00
2014-9-5,86.6,70.5,61.6,78.0,67.8,61.0,99,93,67,28.23,28.09,0,0,0,0.00
2014-9-6,85.3,68.1,58.9,76.0,65.8,58.0,99,94,62,28.11,27.98,6,0,7,0.01
2014-9-7,75.7,60.7,48.5,66.0,54.9,48.0,99,84,48,28.25,28.10,6,0,6,0.00
2014-9-8,75.5,59.8,43.1,66.0,54.7,42.0,99,85,52,28.28,28.19,8,0,9,0.00
2014-9-9,74.2,63.7,55.3,66.0,61.4,54.0,98,93,73,28.23,28.13,6,0,6,0.00
2014-9-10,76.3,68.2,63.0,70.0,65.8,62.0,99,94,75,28.14,27.93,4,0,5,0.00
2014-9-11,71.9,66.3,56.7,71.0,65.1,56.0,99,97,83,28.12,27.86,8,0,8,0.00
2014-9-12,65.9,56.9,51.1,59.0,54.6,50.0,98,93,73,28.21,28.11,4,0,4,0.00
2014-9-13,63.0,54.4,42.9,61.0,53.1,42.0,98,96,84,28.27,28.07,4,0,5,0.00
2014-9-14,66.5,49.4,37.4,58.0,45.3,36.0,98,87,59,28.33,28.19,2,0,3,0.00
2014-9-15,70.4,52.7,39.2,62.0,48.0,38.0,98,86,54,28.24,28.05,5,0,5,0.00
2014-9-16,68.2,55.2,44.2,63.0,52.2,43.0,98,91,69,28.11,28.02,4,0,4,0.00
2014-9-17,71.9,53.3,42.8,64.0,49.1,42.0,98,88,52,28.08,27.98,4,0,4,0.00
2014-9-18,73.1,53.6,43.6,61.0,48.4,43.0,98,85,51,28.13,27.97,2,0,2,0.00
2014-9-19,70.9,52.8,37.1,58.0,48.6,36.0,97,87,55,28.27,28.13,4,0,5,0.00
2014-9-20,80.3,62.0,48.5,67.0,57.3,48.0,99,87,56,28.21,28.02,6,0,7,0.00
2014-9-21,75.8,60.4,51.6,71.0,58.9,51.0,99,96,76,28.02,27.71,6,0,6,0.00
2014-9-22,55.5,51.3,42.7,54.0,49.5,42.0,97,94,80,28.23,27.83,4,0,5,0.00
2014-9-23,68.9,49.3,33.8,54.0,44.5,33.0,97,85,53,28.36,28.23,3,0,3,0.00
2014-9-24,72.8,54.2,37.5,60.0,48.2,36.0,98,83,51,28.49,28.36,7,0,8,0.00
2014-9-25,69.1,58.8,49.2,62.0,56.3,48.0,98,92,77,28.40,28.27,2,0,3,0.00
2014-9-26,74.2,57.8,46.5,68.0,52.9,45.0,99,86,52,28.33,28.25,4,0,4,0.01
2014-9-27,77.8,56.1,38.9,64.0,50.3,38.0,98,84,49,28.32,28.22,4,0,4,0.00
2014-9-28,76.7,58.2,43.8,66.0,54.0,43.0,99,88,54,28.22,28.08,3,0,3,0.00
2014-9-29,74.4,60.3,51.8,68.0,57.0,51.0,99,90,63,28.08,27.94,3,0,3,0.00
2014-9-30,81.8,59.4,46.3,72.0,55.2,45.0,99,88,41,27.97,27.90,5,0,6,0.00
2014-10-1,69.6,56.7,47.6,67.0,54.3,47.0,99,93,68,28.07,27.96,2,0,3,0.00
2014-10-2,75.1,59.0,46.9,68.0,53.6,46.0,98,85,51,28.15,28.06,4,0,4,0.00
2014-10-3,70.1,60.5,48.1,64.0,59.0,47.0,98,96,79,28.06,27.68,7,0,8,0.00
2014-10-4,60.0,47.2,35.7,59.0,45.1,35.0,98,93,58,27.77,27.66,7,0,7,0.00
2014-10-5,49.2,41.6,34.9,42.0,37.8,33.0,96,87,68,27.90,27.74,6,0,7,0.00
2014-10-6,71.1,50.9,36.9,56.0,46.7,36.0,97,88,51,27.90,27.83,9,0,10,0.00
2014-10-7,68.6,54.5,42.6,57.0,51.2,42.0,97,90,54,27.97,27.77,9,0,9,0.00
2014-10-8,62.8,54.1,45.3,56.0,50.1,44.0,97,88,58,28.01,27.81,10,1,10,0.00
2014-10-9,65.6,47.5,31.5,51.0,41.5,31.0,97,82,46,28.08,27.98,10,0,10,0.00
2014-10-10,58.9,51.1,43.7,56.0,49.4,43.0,97,94,81,28.09,28.02,2,0,2,0.00
2014-10-11,59.0,50.9,39.9,55.0,47.9,39.0,97,90,63,28.16,27.97,6,0,6,0.00
2014-10-12,62.5,46.3,29.4,56.0,41.9,28.0,97,86,57,28.23,28.14,7,0,8,0.00
2014-10-13,66.6,58.0,50.8,65.0,56.5,50.0,98,96,87,28.20,28.13,4,0,4,0.00
2014-10-14,77.5,65.9,54.8,69.0,63.8,54.0,99,94,69,28.13,27.86,13,1,13,0.00
2014-10-15,66.6,57.1,47.8,66.0,56.2,47.0,99,97,97,27.90,27.75,6,0,8,0.00
2014-10-16,59.4,53.8,48.7,58.0,52.9,48.0,98,97,96,27.77,27.73,2,0,2,0.00
2014-10-17,64.9,56.6,51.9,57.0,52.8,51.0,97,89,65,27.78,27.66,8,0,8,0.00
2014-10-18,58.3,49.1,42.2,57.0,48.1,41.0,98,97,93,27.89,27.64,7,1,9,0.00
2014-10-19,50.9,40.7,31.2,41.0,36.5,29.0,96,85,58,28.08,27.89,9,1,9,0.00
2014-10-20,56.2,43.7,31.1,47.0,40.0,29.0,97,87,64,28.01,27.86,2,0,5,0.00
2014-10-21,56.7,49.0,44.8,54.0,47.6,44.0,97,95,82,27.95,27.81,6,0,6,0.00
2014-10-22,48.0,46.4,44.4,47.0,45.5,43.0,97,97,96,28.09,27.95,6,2,8,0.00
2014-10-23,58.8,48.6,42.8,48.0,44.0,42.0,97,85,59,28.05,27.97,11,1,12,0.00
2014-10-24,59.4,47.0,33.8,47.0,43.3,33.0,97,88,61,28.05,27.96,7,0,7,0.00
2014-10-25,63.4,49.4,32.5,56.0,45.9,32.0,97,89,69,27.96,27.72,13,1,13,0.01
2014-10-26,60.3,49.0,36.3,52.0,38.7,32.0,97,69,47,27.93,27.73,9,1,9,0.00
2014-10-27,67.7,45.7,25.6,50.0,35.3,24.0,97,74,27,28.05,27.92,2,0,4,0.00
2014-10-28,77.9,60.5,40.2,61.0,52.0,39.0,98,77,51,28.01,27.91,14,0,14,0.00
2014-10-29,59.2,51.1,44.5,58.0,45.9,39.0,98,84,60,27.99,27.92,7,0,8,0.00
2014-10-30,52.0,43.9,40.7,43.0,40.9,38.0,96,90,68,28.05,27.98,4,0,4,0.00
2014-10-31,46.9,42.3,39.2,45.0,40.7,38.0,97,94,84,27.99,27.81,2,0,2,0.00
2014-11-1,43.9,38.6,33.5,43.0,37.5,32.0,96,95,90,28.01,27.82,12,2,12,0.00
2014-11-2,40.9,34.0,25.1,32.0,28.2,23.0,95,80,51,28.22,28.00,11,2,11,0.00
2014-11-3,54.1,40.4,23.9,32.0,26.1,21.0,94,61,31,28.28,28.15,7,0,7,0.00
2014-11-4,65.2,54.3,47.3,39.0,29.3,23.0,55,39,21,28.17,28.02,10,0,11,0.01
2014-11-5,59.4,49.2,40.3,51.0,44.3,37.0,97,85,44,28.17,28.04,9,0,9,0.00
2014-11-6,50.6,44.5,41.2,50.0,43.6,40.0,97,96,96,28.05,27.64,9,0,9,0.00
2014-11-7,41.7,36.4,26.5,41.0,35.1,24.0,96,94,82,27.95,27.72,9,1,9,0.00
2014-11-8,49.9,37.5,22.8,39.0,29.5,21.0,95,74,47,27.96,27.77,6,0,6,0.00
2014-11-9,49.3,39.9,30.5,41.0,35.1,29.0,96,84,54,27.96,27.85,6,0,6,0.00
2014-11-10,62.6,44.3,27.7,48.0,35.6,26.0,97,76,33,28.07,27.95,7,0,7,0.00
2014-11-11,67.1,44.9,27.2,49.0,35.0,26.0,97,74,33,27.96,27.83,7,0,7,0.00
2014-11-12,51.0,39.6,32.8,50.0,37.1,29.0,97,90,78,28.11,27.82,8,0,8,0.00
2014-11-13,33.6,30.8,25.5,32.0,28.5,24.0,95,91,84,28.08,27.97,3,0,4,0.00
2014-11-14,30.6,25.6,22.6,28.0,23.9,21.0,94,91,79,28.18,28.01,5,0,7,0.00
2014-11-15,33.4,24.8,18.4,26.0,21.5,16.0,93,86,65,28.28,28.16,5,0,5,0.00
2014-11-16,39.2,31.3,18.9,35.0,29.0,18.0,95,91,78,28.17,27.85,3,0,3,0.00
2014-11-17,39.5,32.4,16.9,39.0,31.3,16.0,96,95,86,27.85,27.47,10,0,11,0.00
2014-11-18,17.4,14.1,10.5,16.0,10.5,8.0,93,83,68,28.05,27.76,7,1,11,0.00
2014-11-19,33.4,20.5,8.9,29.0,15.5,8.0,93,79,60,28.11,27.81,7,0,7,0.00
2014-11-20,33.3,25.2,16.1,32.0,21.4,14.0,94,83,68,28.02,27.79,17,1,17,0.00
2014-11-21,24.3,16.1,6.4,21.0,13.6,8.0,93,88,68,28.38,28.02,6,0,6,0.00
2014-11-22,33.4,21.2,2.9,32.0,20.3,4.0,95,92,76,28.35,28.06,2,0,2,0.00
2014-11-23,58.8,44.3,30.6,50.0,38.5,29.0,97,82,50,28.09,27.63,9,0,9,0.00
2014-11-24,67.8,54.7,43.2,61.0,47.3,37.0,98,79,46,27.83,27.48,11,1,11,0.00
2014-11-25,45.9,38.4,27.4,39.0,33.8,26.0,95,83,64,28.09,27.83,11,1,11,0.00
2014-11-26,34.1,31.1,27.1,33.0,29.6,26.0,95,95,94,28.10,27.90,2,0,2,0.00
2014-11-27,35.4,30.2,25.4,33.0,28.9,24.0,95,94,94,28.08,27.88,4,0,4,0.00
2014-11-28,25.9,20.9,10.9,24.0,18.8,8.0,94,90,72,28.19,28.07,3,0,3,0.00
2014-11-29,37.8,28.6,13.8,33.0,25.8,11.0,94,88,74,28.12,27.95,4,0,4,0.00
2014-11-30,55.7,43.0,32.9,53.0,41.7,32.0,97,95,90,28.03,27.91,2,0,2,0.00
2014-12-1,56.6,42.8,27.7,55.0,41.4,26.0,97,95,91,28.40,28.03,6,1,6,0.00
2014-12-2,32.4,29.4,24.9,31.0,28.1,24.0,95,94,91,28.40,28.08,4,0,4,0.00
2014-12-3,41.0,34.0,28.3,40.0,32.8,26.0,96,95,94,28.20,27.99,7,0,7,0.00
2014-12-4,35.7,29.2,22.9,29.0,26.3,21.0,94,88,67,28.33,28.20,3,0,3,0.00
2014-12-5,35.7,32.0,24.1,35.0,30.7,23.0,95,95,93,28.30,28.12,3,0,3,0.00
2014-12-6,43.7,37.2,32.8,43.0,36.2,32.0,96,95,95,28.31,27.99,9,1,9,0.00
2014-12-7,37.9,30.1,22.5,32.0,24.6,18.0,95,80,48,28.47,28.30,8,1,8,0.00
2014-12-8,33.2,27.9,20.5,31.0,23.4,14.0,95,84,55,28.41,28.11,8,1,8,0.00
2014-12-9,43.9,35.0,30.4,40.0,33.6,29.0,96,94,86,28.12,27.91,5,1,5,0.00
2014-12-10,36.1,30.8,26.4,35.0,29.6,24.0,95,95,94,27.92,27.77,7,2,7,0.00
2014-12-11,28.6,25.6,23.1,26.0,22.1,16.0,94,86,62,27.94,27.76,12,1,12,0.00
2014-12-12,29.4,27.5,25.2,28.0,25.9,24.0,94,94,85,28.24,27.94,5,1,6,0.00
2014-12-13,33.1,27.9,25.6,32.0,26.4,24.0,95,94,94,29.81,28.22,4,1,5,0.00
2014-12-14,39.7,36.9,33.0,39.0,35.9,32.0,96,95,95,32.67,29.81,7,0,7,0.00
2014-12-15,45.9,38.5,27.9,45.0,37.5,26.0,97,96,94,32.67,30.29,4,0,4,0.00
2014-12-16,43.2,38.0,27.3,42.0,36.9,26.0,96,96,94,32.67,16.24,10,0,10,1.07
2014-12-17,39.3,30.9,27.3,38.0,29.6,24.0,96,94,88,31.23,24.54,11,1,11,3.63
2014-12-18,28.2,25.6,24.6,26.0,24.4,23.0,94,93,86,28.06,27.97,8,1,9,0.00
2014-12-19,26.5,24.6,23.6,24.0,23.7,23.0,94,93,92,28.15,28.00,6,0,6,0.00
2014-12-20,30.9,23.8,18.6,26.0,21.6,18.0,94,91,81,28.17,28.09,4,0,4,0.00
2014-12-21,30.8,24.3,15.7,28.0,22.4,14.0,94,92,83,28.21,28.14,2,0,4,0.00
2014-12-22,35.7,24.8,12.8,32.0,23.0,11.0,95,93,85,28.14,27.95,9,0,9,0.00
2014-12-23,45.7,37.5,31.7,45.0,36.5,31.0,97,96,95,27.96,27.88,4,0,4,0.00
2014-12-24,47.9,42.8,39.5,47.0,41.9,39.0,97,96,96,27.89,27.40,13,0,16,0.00
2014-12-25,43.0,36.7,34.7,42.0,35.5,32.0,96,95,91,28.13,27.58,9,1,11,0.00
2014-12-26,44.6,35.4,26.2,38.0,32.3,24.0,95,88,66,28.23,28.11,7,0,8,0.00
2014-12-27,53.7,37.8,22.6,43.0,33.2,21.0,96,85,63,28.19,27.94,6,0,6,0.00
2014-12-28,49.5,38.6,31.9,45.0,37.1,31.0,97,94,64,28.06,27.86,6,0,7,0.00
2014-12-29,35.0,30.0,25.2,32.0,27.3,23.0,95,89,77,28.19,28.04,5,1,5,0.00
2014-12-30,28.1,22.7,18.9,23.0,18.3,16.0,93,83,65,28.31,28.18,6,1,6,0.00
2014-12-31,22.8,18.1,14.9,18.0,11.9,8.0,93,73,51,28.28,28.04,7,0,7,0.00
2015-1-1,30.9,24.0,16.1,23.0,15.9,8.0,78,67,56,28.04,27.88,16,1,16,0.01
2015-1-2,33.4,26.3,18.0,24.0,22.0,16.0,93,82,67,28.30,27.99,5,1,13,0.00